owner,sensor,date,latitude,longitude,vertical_datum,wind_speed,wind_to_direction,wind_speed_of_gust,qcFlag 
COMPS,ioos:station:USF.COMPS:FHP:1,2017-06-01T00:00:00Z,28.1530,-82.8010,10.0,2.56,322.39,3.42,'1111122,1111122,1111122' 
COMPS,ioos:station:USF.COMPS:FHP:1,2017-06-01T00:06:00Z,28.1530,-82.8010,10.0,2.62,319.75,3.33,'1111122,1111122,1111122' 
COMPS,ioos:station:USF.COMPS:FHP:1,2017-06-01T00:12:00Z,28.1530,-82.8010,10.0,2.55,326.09,3.03,'1111122,1111122,1111122' 
COMPS,ioos:station:USF.COMPS:FHP:1,2017-06-01T00:18:00Z,28.1530,-82.8010,10.0,3.01,331.98,3.72,'1111122,1111122,1111122' 
COMPS,ioos:station:USF.COMPS:FHP:1,2017-06-01T00:24:00Z,28.1530,-82.8010,10.0,2.78,341.7,3.62,'1111122,1111122,1111122' 
COMPS,ioos:station:USF.COMPS:FHP:1,2017-06-01T00:30:00Z,28.1530,-82.8010,10.0,2.93,344.0,3.62,'1111122,1111122,1111122' 
COMPS,ioos:station:USF.COMPS:FHP:1,2017-06-01T00:36:00Z,28.1530,-82.8010,10.0,2.48,337.76,3.33,'1111122,1111122,1111122' 
COMPS,ioos:station:USF.COMPS:FHP:1,2017-06-01T00:42:00Z,28.1530,-82.8010,10.0,2.16,353.94,2.74,'1111122,1111122,1111122' 
COMPS,ioos:station:USF.COMPS:FHP:1,2017-06-01T00:48:00Z,28.1530,-82.8010,10.0,1.88,2.63,2.64,'1111122,1111122,1111122' 
COMPS,ioos:station:USF.COMPS:FHP:1,2017-06-01T00:54:00Z,28.1530,-82.8010,10.0,2.62,0.53,3.33,'1111122,1111122,1111122' 
COMPS,ioos:station:USF.COMPS:FHP:1,2017-06-01T01:00:00Z,28.1530,-82.8010,10.0,2.85,1.72,3.62,'1111122,1111122,1111122' 
COMPS,ioos:station:USF.COMPS:FHP:1,2017-06-01T01:06:00Z,28.1530,-82.8010,10.0,3.02,354.77,3.62,'1111122,1111122,1111122' 
COMPS,ioos:station:USF.COMPS:FHP:1,2017-06-01T01:12:00Z,28.1530,-82.8010,10.0,3.48,1.25,4.7,'1111122,1111122,1111122' 
COMPS,ioos:station:USF.COMPS:FHP:1,2017-06-01T01:18:00Z,28.1530,-82.8010,10.0,3.59,4.64,4.41,'1111122,1111122,1111122' 
COMPS,ioos:station:USF.COMPS:FHP:1,2017-06-01T01:24:00Z,28.1530,-82.8010,10.0,3.3,9.44,4.21,'1111122,1111122,1111122' 
COMPS,ioos:station:USF.COMPS:FHP:1,2017-06-01T01:30:00Z,28.1530,-82.8010,10.0,3.8,7.64,4.6,'1111122,1111122,1111122' 
COMPS,ioos:station:USF.COMPS:FHP:1,2017-06-01T01:36:00Z,28.1530,-82.8010,10.0,3.54,1.95,4.21,'1111122,1111122,1111122' 
COMPS,ioos:station:USF.COMPS:FHP:1,2017-06-01T01:42:00Z,28.1530,-82.8010,10.0,3.45,359.83,4.21,'1111122,1111122,1111122' 
COMPS,ioos:station:USF.COMPS:FHP:1,2017-06-01T01:48:00Z,28.1530,-82.8010,10.0,2.9,10.06,3.62,'1111122,1111122,1111122' 
COMPS,ioos:station:USF.COMPS:FHP:1,2017-06-01T01:54:00Z,28.1530,-82.8010,10.0,3.0,9.81,3.82,'1111122,1111122,1111122' 
COMPS,ioos:station:USF.COMPS:FHP:1,2017-06-01T02:00:00Z,28.1530,-82.8010,10.0,2.94,17.77,3.82,'1111122,1111122,1111122' 
COMPS,ioos:station:USF.COMPS:FHP:1,2017-06-01T02:06:00Z,28.1530,-82.8010,10.0,2.52,34.72,3.13,'1111122,1111122,1111122' 
COMPS,ioos:station:USF.COMPS:FHP:1,2017-06-01T02:12:00Z,28.1530,-82.8010,10.0,2.55,70.68,3.23,'1111122,1111122,1111122' 
COMPS,ioos:station:USF.COMPS:FHP:1,2017-06-01T02:18:00Z,28.1530,-82.8010,10.0,2.27,72.29,2.64,'1111122,1111122,1111122' 
COMPS,ioos:station:USF.COMPS:FHP:1,2017-06-01T02:24:00Z,28.1530,-82.8010,10.0,2.17,68.49,2.93,'1111122,1111122,1111122' 
COMPS,ioos:station:USF.COMPS:FHP:1,2017-06-01T02:30:00Z,28.1530,-82.8010,10.0,1.59,71.33,2.15,'1111122,1111122,1111122' 
COMPS,ioos:station:USF.COMPS:FHP:1,2017-06-01T02:36:00Z,28.1530,-82.8010,10.0,1.4,60.63,1.86,'1111122,1111122,1111122' 
COMPS,ioos:station:USF.COMPS:FHP:1,2017-06-01T02:42:00Z,28.1530,-82.8010,10.0,1.26,44.3,1.66,'1111122,1111122,1111122' 
COMPS,ioos:station:USF.COMPS:FHP:1,2017-06-01T02:48:00Z,28.1530,-82.8010,10.0,1.46,43.64,1.86,'1111122,1111122,1111122' 
COMPS,ioos:station:USF.COMPS:FHP:1,2017-06-01T02:54:00Z,28.1530,-82.8010,10.0,1.89,58.09,2.25,'1111122,1111122,1111122' 
COMPS,ioos:station:USF.COMPS:FHP:1,2017-06-01T03:00:00Z,28.1530,-82.8010,10.0,2.02,62.14,2.84,'1111122,1111122,1111122' 
COMPS,ioos:station:USF.COMPS:FHP:1,2017-06-01T03:06:00Z,28.1530,-82.8010,10.0,2.27,69.87,2.64,'1111122,1111122,1111122' 
COMPS,ioos:station:USF.COMPS:FHP:1,2017-06-01T03:12:00Z,28.1530,-82.8010,10.0,2.65,69.02,3.42,'1111122,1111122,1111122' 
COMPS,ioos:station:USF.COMPS:FHP:1,2017-06-01T03:18:00Z,28.1530,-82.8010,10.0,2.93,74.11,3.42,'1111122,1111122,1111122' 
COMPS,ioos:station:USF.COMPS:FHP:1,2017-06-01T03:24:00Z,28.1530,-82.8010,10.0,2.99,76.84,3.52,'1111122,1111122,1111122' 
COMPS,ioos:station:USF.COMPS:FHP:1,2017-06-01T03:30:00Z,28.1530,-82.8010,10.0,3.23,72.45,3.91,'1111122,1111122,1111122' 
COMPS,ioos:station:USF.COMPS:FHP:1,2017-06-01T03:36:00Z,28.1530,-82.8010,10.0,2.78,71.46,3.42,'1111122,1111122,1111122' 
COMPS,ioos:station:USF.COMPS:FHP:1,2017-06-01T03:42:00Z,28.1530,-82.8010,10.0,2.37,66.01,3.03,'1111122,1111122,1111122' 
COMPS,ioos:station:USF.COMPS:FHP:1,2017-06-01T03:48:00Z,28.1530,-82.8010,10.0,2.45,72.37,2.93,'1111122,1111122,1111122' 
COMPS,ioos:station:USF.COMPS:FHP:1,2017-06-01T03:54:00Z,28.1530,-82.8010,10.0,2.36,85.12,3.13,'1111122,1111122,1111122' 
COMPS,ioos:station:USF.COMPS:FHP:1,2017-06-01T04:00:00Z,28.1530,-82.8010,10.0,2.16,90.78,2.93,'1111122,1111122,1111122' 
COMPS,ioos:station:USF.COMPS:FHP:1,2017-06-01T04:06:00Z,28.1530,-82.8010,10.0,2.12,90.74,2.54,'1111122,1111122,1111122' 
COMPS,ioos:station:USF.COMPS:FHP:1,2017-06-01T04:12:00Z,28.1530,-82.8010,10.0,2.63,88.41,3.33,'1111122,1111122,1111122' 
COMPS,ioos:station:USF.COMPS:FHP:1,2017-06-01T04:18:00Z,28.1530,-82.8010,10.0,2.63,87.25,3.52,'1111122,1111122,1111122' 
COMPS,ioos:station:USF.COMPS:FHP:1,2017-06-01T04:24:00Z,28.1530,-82.8010,10.0,2.21,86.59,2.93,'1111122,1111122,1111122' 
COMPS,ioos:station:USF.COMPS:FHP:1,2017-06-01T04:30:00Z,28.1530,-82.8010,10.0,2.25,77.29,2.74,'1111122,1111122,1111122' 
COMPS,ioos:station:USF.COMPS:FHP:1,2017-06-01T04:36:00Z,28.1530,-82.8010,10.0,2.12,85.24,2.54,'1111122,1111122,1111122' 
COMPS,ioos:station:USF.COMPS:FHP:1,2017-06-01T04:42:00Z,28.1530,-82.8010,10.0,2.31,96.46,3.13,'1111122,1111122,1111122' 
COMPS,ioos:station:USF.COMPS:FHP:1,2017-06-01T04:48:00Z,28.1530,-82.8010,10.0,2.87,105.9,3.52,'1111122,1111122,1111122' 
COMPS,ioos:station:USF.COMPS:FHP:1,2017-06-01T04:54:00Z,28.1530,-82.8010,10.0,2.4,109.8,3.13,'1111122,1111122,1111122' 
COMPS,ioos:station:USF.COMPS:FHP:1,2017-06-01T05:00:00Z,28.1530,-82.8010,10.0,2.78,117.88,3.62,'1111122,1111122,1111122' 
COMPS,ioos:station:USF.COMPS:FHP:1,2017-06-01T05:06:00Z,28.1530,-82.8010,10.0,3.13,127.37,4.41,'1111122,1111122,1111122' 
COMPS,ioos:station:USF.COMPS:FHP:1,2017-06-01T05:12:00Z,28.1530,-82.8010,10.0,3.14,127.48,4.01,'1111122,1111122,1111122' 
COMPS,ioos:station:USF.COMPS:FHP:1,2017-06-01T05:18:00Z,28.1530,-82.8010,10.0,1.89,112.61,2.84,'1111122,1111122,1111122' 
COMPS,ioos:station:USF.COMPS:FHP:1,2017-06-01T05:24:00Z,28.1530,-82.8010,10.0,1.3,75.59,2.05,'1111122,1111122,1111122' 
COMPS,ioos:station:USF.COMPS:FHP:1,2017-06-01T05:30:00Z,28.1530,-82.8010,10.0,1.75,99.96,2.35,'1111122,1111122,1111122' 
COMPS,ioos:station:USF.COMPS:FHP:1,2017-06-01T05:36:00Z,28.1530,-82.8010,10.0,1.94,113.92,2.35,'1111122,1111122,1111122' 
COMPS,ioos:station:USF.COMPS:FHP:1,2017-06-01T05:42:00Z,28.1530,-82.8010,10.0,2.33,122.63,3.13,'1111122,1111122,1111122' 
COMPS,ioos:station:USF.COMPS:FHP:1,2017-06-01T05:48:00Z,28.1530,-82.8010,10.0,2.55,118.63,3.13,'1111122,1111122,1111122' 
COMPS,ioos:station:USF.COMPS:FHP:1,2017-06-01T05:54:00Z,28.1530,-82.8010,10.0,2.21,107.21,2.74,'1111122,1111122,1111122' 
COMPS,ioos:station:USF.COMPS:FHP:1,2017-06-01T06:00:00Z,28.1530,-82.8010,10.0,1.94,92.73,2.35,'1111122,1111122,1111122' 
COMPS,ioos:station:USF.COMPS:FHP:1,2017-06-01T06:06:00Z,28.1530,-82.8010,10.0,2.52,105.19,2.93,'1111122,1111122,1111122' 
COMPS,ioos:station:USF.COMPS:FHP:1,2017-06-01T06:12:00Z,28.1530,-82.8010,10.0,1.93,102.2,2.45,'1111122,1111122,1111122' 
COMPS,ioos:station:USF.COMPS:FHP:1,2017-06-01T06:18:00Z,28.1530,-82.8010,10.0,2.27,89.91,2.64,'1111122,1111122,1111122' 
COMPS,ioos:station:USF.COMPS:FHP:1,2017-06-01T06:24:00Z,28.1530,-82.8010,10.0,2.77,100.58,3.52,'1111122,1111122,1111122' 
COMPS,ioos:station:USF.COMPS:FHP:1,2017-06-01T06:30:00Z,28.1530,-82.8010,10.0,2.13,104.37,2.74,'1111122,1111122,1111122' 
COMPS,ioos:station:USF.COMPS:FHP:1,2017-06-01T06:36:00Z,28.1530,-82.8010,10.0,2.36,94.34,3.13,'1111122,1111122,1111122' 
COMPS,ioos:station:USF.COMPS:FHP:1,2017-06-01T06:42:00Z,28.1530,-82.8010,10.0,3.25,103.08,3.72,'1111122,1111122,1111122' 
COMPS,ioos:station:USF.COMPS:FHP:1,2017-06-01T06:48:00Z,28.1530,-82.8010,10.0,3.23,118.75,4.31,'1111122,1111122,1111122' 
COMPS,ioos:station:USF.COMPS:FHP:1,2017-06-01T06:54:00Z,28.1530,-82.8010,10.0,3.28,132.96,3.91,'1111122,1111122,1111122' 
COMPS,ioos:station:USF.COMPS:FHP:1,2017-06-01T07:00:00Z,28.1530,-82.8010,10.0,2.71,129.86,3.42,'1111122,1111122,1111122' 
COMPS,ioos:station:USF.COMPS:FHP:1,2017-06-01T07:06:00Z,28.1530,-82.8010,10.0,2.88,137.72,3.23,'1111122,1111122,1111122' 
COMPS,ioos:station:USF.COMPS:FHP:1,2017-06-01T07:12:00Z,28.1530,-82.8010,10.0,1.89,127.05,2.74,'1111122,1111122,1111122' 
COMPS,ioos:station:USF.COMPS:FHP:1,2017-06-01T07:18:00Z,28.1530,-82.8010,10.0,1.81,126.33,2.54,'1111122,1111122,1111122' 
COMPS,ioos:station:USF.COMPS:FHP:1,2017-06-01T07:24:00Z,28.1530,-82.8010,10.0,1.62,126.59,2.45,'1111122,1111122,1111122' 
COMPS,ioos:station:USF.COMPS:FHP:1,2017-06-01T07:30:00Z,28.1530,-82.8010,10.0,1.81,139.05,2.45,'1111122,1111122,1111122' 
COMPS,ioos:station:USF.COMPS:FHP:1,2017-06-01T07:36:00Z,28.1530,-82.8010,10.0,2.31,144.35,2.74,'1111122,1111122,1111122' 
COMPS,ioos:station:USF.COMPS:FHP:1,2017-06-01T07:42:00Z,28.1530,-82.8010,10.0,2.52,132.96,3.52,'1111122,1111122,1111122' 
COMPS,ioos:station:USF.COMPS:FHP:1,2017-06-01T07:48:00Z,28.1530,-82.8010,10.0,1.77,119.47,2.54,'1111122,1111122,1111122' 
COMPS,ioos:station:USF.COMPS:FHP:1,2017-06-01T07:54:00Z,28.1530,-82.8010,10.0,2.16,107.9,2.64,'1111122,1111122,1111122' 
COMPS,ioos:station:USF.COMPS:FHP:1,2017-06-01T08:00:00Z,28.1530,-82.8010,10.0,1.83,88.43,2.45,'1111122,1111122,1111122' 
COMPS,ioos:station:USF.COMPS:FHP:1,2017-06-01T08:06:00Z,28.1530,-82.8010,10.0,2.74,105.59,3.72,'1111122,1111122,1111122' 
COMPS,ioos:station:USF.COMPS:FHP:1,2017-06-01T08:12:00Z,28.1530,-82.8010,10.0,2.66,115.32,3.42,'1111122,1111122,1111122' 
COMPS,ioos:station:USF.COMPS:FHP:1,2017-06-01T08:18:00Z,28.1530,-82.8010,10.0,2.58,113.21,3.33,'1111122,1111122,1111122' 
COMPS,ioos:station:USF.COMPS:FHP:1,2017-06-01T08:24:00Z,28.1530,-82.8010,10.0,2.51,109.02,3.33,'1111122,1111122,1111122' 
COMPS,ioos:station:USF.COMPS:FHP:1,2017-06-01T08:30:00Z,28.1530,-82.8010,10.0,2.65,113.15,3.52,'1111122,1111122,1111122' 
COMPS,ioos:station:USF.COMPS:FHP:1,2017-06-01T08:36:00Z,28.1530,-82.8010,10.0,2.47,110.88,3.23,'1111122,1111122,1111122' 
COMPS,ioos:station:USF.COMPS:FHP:1,2017-06-01T08:42:00Z,28.1530,-82.8010,10.0,1.94,116.61,3.13,'1111122,1111122,1111122' 
COMPS,ioos:station:USF.COMPS:FHP:1,2017-06-01T08:48:00Z,28.1530,-82.8010,10.0,2.41,121.67,3.13,'1111122,1111122,1111122' 
COMPS,ioos:station:USF.COMPS:FHP:1,2017-06-01T08:54:00Z,28.1530,-82.8010,10.0,1.9,114.73,3.42,'1111122,1111122,1111122' 
COMPS,ioos:station:USF.COMPS:FHP:1,2017-06-01T09:00:00Z,28.1530,-82.8010,10.0,2.76,123.6,3.42,'1111122,1111122,1111122' 
COMPS,ioos:station:USF.COMPS:FHP:1,2017-06-01T09:06:00Z,28.1530,-82.8010,10.0,2.83,119.78,3.91,'1111122,1111122,1111122' 
COMPS,ioos:station:USF.COMPS:FHP:1,2017-06-01T09:12:00Z,28.1530,-82.8010,10.0,2.13,124.43,2.93,'1111122,1111122,1111122' 
COMPS,ioos:station:USF.COMPS:FHP:1,2017-06-01T09:18:00Z,28.1530,-82.8010,10.0,3.0,134.39,4.11,'1111122,1111122,1111122' 
COMPS,ioos:station:USF.COMPS:FHP:1,2017-06-01T09:24:00Z,28.1530,-82.8010,10.0,2.99,138.15,3.42,'1111122,1111122,1111122' 
COMPS,ioos:station:USF.COMPS:FHP:1,2017-06-01T09:30:00Z,28.1530,-82.8010,10.0,2.73,127.98,3.82,'1111122,1111122,1111122' 
COMPS,ioos:station:USF.COMPS:FHP:1,2017-06-01T09:36:00Z,28.1530,-82.8010,10.0,2.66,133.62,3.52,'1111122,1111122,1111122' 
COMPS,ioos:station:USF.COMPS:FHP:1,2017-06-01T09:42:00Z,28.1530,-82.8010,10.0,2.23,131.19,3.13,'1111122,1111122,1111122' 
COMPS,ioos:station:USF.COMPS:FHP:1,2017-06-01T09:48:00Z,28.1530,-82.8010,10.0,2.5,125.72,3.13,'1111122,1111122,1111122' 
COMPS,ioos:station:USF.COMPS:FHP:1,2017-06-01T09:54:00Z,28.1530,-82.8010,10.0,2.3,119.59,2.93,'1111122,1111122,1111122' 
COMPS,ioos:station:USF.COMPS:FHP:1,2017-06-01T10:00:00Z,28.1530,-82.8010,10.0,2.47,118.99,3.13,'1111122,1111122,1111122' 
COMPS,ioos:station:USF.COMPS:FHP:1,2017-06-01T10:06:00Z,28.1530,-82.8010,10.0,2.45,112.29,2.93,'1111122,1111122,1111122' 
COMPS,ioos:station:USF.COMPS:FHP:1,2017-06-01T10:12:00Z,28.1530,-82.8010,10.0,3.1,118.23,3.52,'1111122,1111122,1111122' 
COMPS,ioos:station:USF.COMPS:FHP:1,2017-06-01T10:18:00Z,28.1530,-82.8010,10.0,3.22,119.04,4.21,'1111122,1111122,1111122' 
COMPS,ioos:station:USF.COMPS:FHP:1,2017-06-01T10:24:00Z,28.1530,-82.8010,10.0,3.06,123.6,4.11,'1111122,1111122,1111122' 
COMPS,ioos:station:USF.COMPS:FHP:1,2017-06-01T10:30:00Z,28.1530,-82.8010,10.0,3.31,121.62,4.41,'1111122,1111122,1111122' 
COMPS,ioos:station:USF.COMPS:FHP:1,2017-06-01T10:36:00Z,28.1530,-82.8010,10.0,3.04,121.59,4.11,'1111122,1111122,1111122' 
COMPS,ioos:station:USF.COMPS:FHP:1,2017-06-01T10:42:00Z,28.1530,-82.8010,10.0,2.6,112.28,3.13,'1111122,1111122,1111122' 
COMPS,ioos:station:USF.COMPS:FHP:1,2017-06-01T10:48:00Z,28.1530,-82.8010,10.0,2.56,112.03,3.13,'1111122,1111122,1111122' 
COMPS,ioos:station:USF.COMPS:FHP:1,2017-06-01T10:54:00Z,28.1530,-82.8010,10.0,2.49,118.46,3.23,'1111122,1111122,1111122' 
COMPS,ioos:station:USF.COMPS:FHP:1,2017-06-01T11:00:00Z,28.1530,-82.8010,10.0,2.19,122.82,3.03,'1111122,1111122,1111122' 
COMPS,ioos:station:USF.COMPS:FHP:1,2017-06-01T11:06:00Z,28.1530,-82.8010,10.0,2.16,116.54,2.93,'1111122,1111122,1111122' 
COMPS,ioos:station:USF.COMPS:FHP:1,2017-06-01T11:12:00Z,28.1530,-82.8010,10.0,2.28,118.89,3.03,'1111122,1111122,1111122' 
COMPS,ioos:station:USF.COMPS:FHP:1,2017-06-01T11:18:00Z,28.1530,-82.8010,10.0,2.58,119.63,3.23,'1111122,1111122,1111122' 
COMPS,ioos:station:USF.COMPS:FHP:1,2017-06-01T11:24:00Z,28.1530,-82.8010,10.0,2.44,121.04,3.33,'1111122,1111122,1111122' 
COMPS,ioos:station:USF.COMPS:FHP:1,2017-06-01T11:30:00Z,28.1530,-82.8010,10.0,2.92,117.76,3.62,'1111122,1111122,1111122' 
COMPS,ioos:station:USF.COMPS:FHP:1,2017-06-01T11:36:00Z,28.1530,-82.8010,10.0,2.7,125.56,3.33,'1111122,1111122,1111122' 
COMPS,ioos:station:USF.COMPS:FHP:1,2017-06-01T11:42:00Z,28.1530,-82.8010,10.0,2.87,134.37,3.33,'1111122,1111122,1111122' 
COMPS,ioos:station:USF.COMPS:FHP:1,2017-06-01T11:48:00Z,28.1530,-82.8010,10.0,3.24,133.45,4.01,'1111122,1111122,1111122' 
COMPS,ioos:station:USF.COMPS:FHP:1,2017-06-01T11:54:00Z,28.1530,-82.8010,10.0,3.41,134.99,4.11,'1111122,1111122,1111122' 
COMPS,ioos:station:USF.COMPS:FHP:1,2017-06-01T12:00:00Z,28.1530,-82.8010,10.0,3.17,138.03,4.01,'1111122,1111122,1111122' 
COMPS,ioos:station:USF.COMPS:FHP:1,2017-06-01T12:06:00Z,28.1530,-82.8010,10.0,3.04,135.32,3.52,'1111122,1111122,1111122' 
COMPS,ioos:station:USF.COMPS:FHP:1,2017-06-01T12:12:00Z,28.1530,-82.8010,10.0,2.38,135.57,3.03,'1111122,1111122,1111122' 
COMPS,ioos:station:USF.COMPS:FHP:1,2017-06-01T12:18:00Z,28.1530,-82.8010,10.0,2.26,129.9,2.93,'1111122,1111122,1111122' 
COMPS,ioos:station:USF.COMPS:FHP:1,2017-06-01T12:24:00Z,28.1530,-82.8010,10.0,2.28,140.84,2.84,'1111122,1111122,1111122' 
COMPS,ioos:station:USF.COMPS:FHP:1,2017-06-01T12:30:00Z,28.1530,-82.8010,10.0,3.04,154.67,4.01,'1111122,1111122,1111122' 
COMPS,ioos:station:USF.COMPS:FHP:1,2017-06-01T12:36:00Z,28.1530,-82.8010,10.0,3.43,161.76,4.01,'1111122,1111122,1111122' 
COMPS,ioos:station:USF.COMPS:FHP:1,2017-06-01T12:42:00Z,28.1530,-82.8010,10.0,3.23,159.36,3.82,'1111122,1111122,1111122' 
COMPS,ioos:station:USF.COMPS:FHP:1,2017-06-01T12:48:00Z,28.1530,-82.8010,10.0,2.93,153.91,3.62,'1111122,1111122,1111122' 
COMPS,ioos:station:USF.COMPS:FHP:1,2017-06-01T12:54:00Z,28.1530,-82.8010,10.0,2.28,159.39,3.13,'1111122,1111122,1111122' 
COMPS,ioos:station:USF.COMPS:FHP:1,2017-06-01T13:00:00Z,28.1530,-82.8010,10.0,2.56,157.66,3.23,'1111122,1111122,1111122' 
COMPS,ioos:station:USF.COMPS:FHP:1,2017-06-01T13:06:00Z,28.1530,-82.8010,10.0,2.27,153.42,3.42,'1111122,1111122,1111122' 
COMPS,ioos:station:USF.COMPS:FHP:1,2017-06-01T13:12:00Z,28.1530,-82.8010,10.0,2.86,148.2,3.62,'1111122,1111122,1111122' 
COMPS,ioos:station:USF.COMPS:FHP:1,2017-06-01T13:18:00Z,28.1530,-82.8010,10.0,2.76,146.58,3.42,'1111122,1111122,1111122' 
COMPS,ioos:station:USF.COMPS:FHP:1,2017-06-01T13:24:00Z,28.1530,-82.8010,10.0,1.74,153.68,2.35,'1111122,1111122,1111122' 
COMPS,ioos:station:USF.COMPS:FHP:1,2017-06-01T13:30:00Z,28.1530,-82.8010,10.0,2.42,167.63,3.13,'1111122,1111122,1111122' 
COMPS,ioos:station:USF.COMPS:FHP:1,2017-06-01T13:36:00Z,28.1530,-82.8010,10.0,2.71,165.55,4.6,'1111122,1111122,1111122' 
COMPS,ioos:station:USF.COMPS:FHP:1,2017-06-01T13:42:00Z,28.1530,-82.8010,10.0,3.52,164.76,4.6,'1111122,1111122,1111122' 
COMPS,ioos:station:USF.COMPS:FHP:1,2017-06-01T13:48:00Z,28.1530,-82.8010,10.0,2.59,174.23,3.33,'1111122,1111122,1111122' 
COMPS,ioos:station:USF.COMPS:FHP:1,2017-06-01T13:54:00Z,28.1530,-82.8010,10.0,2.55,170.45,3.52,'1111122,1111122,1111122' 
COMPS,ioos:station:USF.COMPS:FHP:1,2017-06-01T14:00:00Z,28.1530,-82.8010,10.0,2.97,164.36,3.82,'1111122,1111122,1111122' 
COMPS,ioos:station:USF.COMPS:FHP:1,2017-06-01T14:06:00Z,28.1530,-82.8010,10.0,2.56,165.74,3.33,'1111122,1111122,1111122' 
COMPS,ioos:station:USF.COMPS:FHP:1,2017-06-01T14:12:00Z,28.1530,-82.8010,10.0,2.25,179.55,3.23,'1111122,1111122,1111122' 
COMPS,ioos:station:USF.COMPS:FHP:1,2017-06-01T14:18:00Z,28.1530,-82.8010,10.0,1.66,200.59,2.64,'1111122,1111122,1111122' 
COMPS,ioos:station:USF.COMPS:FHP:1,2017-06-01T14:24:00Z,28.1530,-82.8010,10.0,1.58,219.72,2.05,'1111122,1111122,1111122' 
COMPS,ioos:station:USF.COMPS:FHP:1,2017-06-01T14:30:00Z,28.1530,-82.8010,10.0,1.49,227.65,2.45,'1111122,1111122,1111122' 
COMPS,ioos:station:USF.COMPS:FHP:1,2017-06-01T14:36:00Z,28.1530,-82.8010,10.0,2.55,233.74,3.13,'1111122,1111122,1111122' 
COMPS,ioos:station:USF.COMPS:FHP:1,2017-06-01T14:42:00Z,28.1530,-82.8010,10.0,2.55,233.49,3.23,'1111122,1111122,1111122' 
COMPS,ioos:station:USF.COMPS:FHP:1,2017-06-01T14:48:00Z,28.1530,-82.8010,10.0,2.49,239.63,3.33,'1111122,1111122,1111122' 
COMPS,ioos:station:USF.COMPS:FHP:1,2017-06-01T14:54:00Z,28.1530,-82.8010,10.0,3.07,239.93,3.82,'1111122,1111122,1111122' 
COMPS,ioos:station:USF.COMPS:FHP:1,2017-06-01T15:00:00Z,28.1530,-82.8010,10.0,3.12,246.62,3.62,'1111122,1111122,1111122' 
COMPS,ioos:station:USF.COMPS:FHP:1,2017-06-01T15:06:00Z,28.1530,-82.8010,10.0,3.42,254.4,4.11,'1111122,1111122,1111122' 
COMPS,ioos:station:USF.COMPS:FHP:1,2017-06-01T15:12:00Z,28.1530,-82.8010,10.0,3.65,264.87,4.21,'1111122,1111122,1111122' 
COMPS,ioos:station:USF.COMPS:FHP:1,2017-06-01T15:18:00Z,28.1530,-82.8010,10.0,3.11,267.84,3.82,'1111122,1111122,1111122' 
COMPS,ioos:station:USF.COMPS:FHP:1,2017-06-01T15:24:00Z,28.1530,-82.8010,10.0,2.78,272.01,3.33,'1111122,1111122,1111122' 
COMPS,ioos:station:USF.COMPS:FHP:1,2017-06-01T15:30:00Z,28.1530,-82.8010,10.0,2.27,264.93,2.84,'1111122,1111122,1111122' 
COMPS,ioos:station:USF.COMPS:FHP:1,2017-06-01T15:36:00Z,28.1530,-82.8010,10.0,2.32,271.64,2.93,'1111122,1111122,1111122' 
COMPS,ioos:station:USF.COMPS:FHP:1,2017-06-01T15:42:00Z,28.1530,-82.8010,10.0,2.31,260.4,2.74,'1111122,1111122,1111122' 
COMPS,ioos:station:USF.COMPS:FHP:1,2017-06-01T15:48:00Z,28.1530,-82.8010,10.0,2.09,266.0,2.74,'1111122,1111122,1111122' 
COMPS,ioos:station:USF.COMPS:FHP:1,2017-06-01T15:54:00Z,28.1530,-82.8010,10.0,2.27,274.33,3.03,'1111122,1111122,1111122' 
COMPS,ioos:station:USF.COMPS:FHP:1,2017-06-01T16:00:00Z,28.1530,-82.8010,10.0,2.47,276.69,2.93,'1111122,1111122,1111122' 
COMPS,ioos:station:USF.COMPS:FHP:1,2017-06-01T16:06:00Z,28.1530,-82.8010,10.0,2.56,281.56,2.93,'1111122,1111122,1111122' 
COMPS,ioos:station:USF.COMPS:FHP:1,2017-06-01T16:12:00Z,28.1530,-82.8010,10.0,2.54,278.25,3.23,'1111122,1111122,1111122' 
COMPS,ioos:station:USF.COMPS:FHP:1,2017-06-01T16:18:00Z,28.1530,-82.8010,10.0,2.43,276.93,3.13,'1111122,1111122,1111122' 
COMPS,ioos:station:USF.COMPS:FHP:1,2017-06-01T16:24:00Z,28.1530,-82.8010,10.0,2.52,274.33,3.13,'1111122,1111122,1111122' 
COMPS,ioos:station:USF.COMPS:FHP:1,2017-06-01T16:30:00Z,28.1530,-82.8010,10.0,2.69,275.1,3.23,'1111122,1111122,1111122' 
COMPS,ioos:station:USF.COMPS:FHP:1,2017-06-01T16:36:00Z,28.1530,-82.8010,10.0,2.59,284.42,3.13,'1111122,1111122,1111122' 
COMPS,ioos:station:USF.COMPS:FHP:1,2017-06-01T16:42:00Z,28.1530,-82.8010,10.0,2.72,286.1,3.33,'1111122,1111122,1111122' 
COMPS,ioos:station:USF.COMPS:FHP:1,2017-06-01T16:48:00Z,28.1530,-82.8010,10.0,2.82,274.73,3.23,'1111122,1111122,1111122' 
COMPS,ioos:station:USF.COMPS:FHP:1,2017-06-01T16:54:00Z,28.1530,-82.8010,10.0,2.91,277.4,3.62,'1111122,1111122,1111122' 
COMPS,ioos:station:USF.COMPS:FHP:1,2017-06-01T17:00:00Z,28.1530,-82.8010,10.0,3.28,286.42,4.11,'1111122,1111122,1111122' 
COMPS,ioos:station:USF.COMPS:FHP:1,2017-06-01T17:06:00Z,28.1530,-82.8010,10.0,3.71,292.16,4.8,'1111122,1111122,1111122' 
COMPS,ioos:station:USF.COMPS:FHP:1,2017-06-01T17:12:00Z,28.1530,-82.8010,10.0,3.55,296.28,4.5,'1111122,1111122,1111122' 
COMPS,ioos:station:USF.COMPS:FHP:1,2017-06-01T17:18:00Z,28.1530,-82.8010,10.0,3.91,289.67,4.5,'1111122,1111122,1111122' 
COMPS,ioos:station:USF.COMPS:FHP:1,2017-06-01T17:24:00Z,28.1530,-82.8010,10.0,4.14,285.85,5.29,'1111122,1111122,1111122' 
COMPS,ioos:station:USF.COMPS:FHP:1,2017-06-01T17:30:00Z,28.1530,-82.8010,10.0,3.98,286.38,4.7,'1111122,1111122,1111122' 
COMPS,ioos:station:USF.COMPS:FHP:1,2017-06-01T17:36:00Z,28.1530,-82.8010,10.0,4.23,283.73,5.09,'1111122,1111122,1111122' 
COMPS,ioos:station:USF.COMPS:FHP:1,2017-06-01T17:42:00Z,28.1530,-82.8010,10.0,4.01,279.97,5.09,'1111122,1111122,1111122' 
COMPS,ioos:station:USF.COMPS:FHP:1,2017-06-01T17:48:00Z,28.1530,-82.8010,10.0,4.07,275.24,5.19,'1111122,1111122,1111122' 
COMPS,ioos:station:USF.COMPS:FHP:1,2017-06-01T17:54:00Z,28.1530,-82.8010,10.0,4.47,276.18,4.99,'1111122,1111122,1111122' 
COMPS,ioos:station:USF.COMPS:FHP:1,2017-06-01T18:00:00Z,28.1530,-82.8010,10.0,4.31,276.01,5.09,'1111122,1111122,1111122' 
COMPS,ioos:station:USF.COMPS:FHP:1,2017-06-01T18:06:00Z,28.1530,-82.8010,10.0,3.93,271.48,4.6,'1111122,1111122,1111122' 
COMPS,ioos:station:USF.COMPS:FHP:1,2017-06-01T18:12:00Z,28.1530,-82.8010,10.0,3.72,277.54,4.8,'1111122,1111122,1111122' 
COMPS,ioos:station:USF.COMPS:FHP:1,2017-06-01T18:18:00Z,28.1530,-82.8010,10.0,3.96,276.28,4.8,'1111122,1111122,1111122' 
COMPS,ioos:station:USF.COMPS:FHP:1,2017-06-01T18:24:00Z,28.1530,-82.8010,10.0,3.93,282.8,4.9,'1111122,1111122,1111122' 
COMPS,ioos:station:USF.COMPS:FHP:1,2017-06-01T18:30:00Z,28.1530,-82.8010,10.0,3.9,284.21,4.7,'1111122,1111122,1111122' 
COMPS,ioos:station:USF.COMPS:FHP:1,2017-06-01T18:36:00Z,28.1530,-82.8010,10.0,3.77,284.66,4.5,'1111122,1111122,1111122' 
COMPS,ioos:station:USF.COMPS:FHP:1,2017-06-01T18:42:00Z,28.1530,-82.8010,10.0,3.88,289.31,4.8,'1111122,1111122,1111122' 
COMPS,ioos:station:USF.COMPS:FHP:1,2017-06-01T18:48:00Z,28.1530,-82.8010,10.0,3.86,290.74,5.09,'1111122,1111122,1111122' 
COMPS,ioos:station:USF.COMPS:FHP:1,2017-06-01T18:54:00Z,28.1530,-82.8010,10.0,3.54,292.16,4.41,'1111122,1111122,1111122' 
COMPS,ioos:station:USF.COMPS:FHP:1,2017-06-01T19:00:00Z,28.1530,-82.8010,10.0,3.42,293.05,4.01,'1111122,1111122,1111122' 
COMPS,ioos:station:USF.COMPS:FHP:1,2017-06-01T19:06:00Z,28.1530,-82.8010,10.0,3.51,297.85,4.21,'1111122,1111122,1111122' 
COMPS,ioos:station:USF.COMPS:FHP:1,2017-06-01T19:12:00Z,28.1530,-82.8010,10.0,3.51,295.65,4.6,'1111122,1111122,1111122' 
COMPS,ioos:station:USF.COMPS:FHP:1,2017-06-01T19:18:00Z,28.1530,-82.8010,10.0,3.57,292.11,4.41,'1111122,1111122,1111122' 
COMPS,ioos:station:USF.COMPS:FHP:1,2017-06-01T19:24:00Z,28.1530,-82.8010,10.0,3.47,291.21,4.5,'1111122,1111122,1111122' 
COMPS,ioos:station:USF.COMPS:FHP:1,2017-06-01T19:30:00Z,28.1530,-82.8010,10.0,3.8,293.95,4.6,'1111122,1111122,1111122' 